| time (UTC) | temp F | wind direction | speed knots | gust knots | rain 1hr in | rain 24hr in | rain mn in | humidity % | barometer mb |
| 20260504050017 | 60 | 293 | 0.9 | 2.6 | 0.00 | 0.00 | 0.00 | 67 | 1021.6 |
| 20260504045038 | 60 | 293 | 0.9 | 2.6 | 0.00 | 0.00 | 0.00 | 68 | 1021.5 |
| 20260504044017 | 59 | 293 | 1.7 | 3.5 | 0.00 | 0.00 | 0.00 | 70 | 1021.5 |
| 20260504043017 | 59 | 293 | 1.7 | 3.5 | 0.00 | 0.00 | 0.00 | 72 | 1021.4 |
| 20260504042017 | 58 | 293 | 1.7 | 2.6 | 0.00 | 0.00 | 0.00 | 72 | 1021.3 |
| 20260504041017 | 59 | 0.0 | 0.0 | 0.00 | 0.00 | 0.00 | 73 | 1021.3 | |
| 20260504040037 | 59 | 293 | 1.7 | 3.5 | 0.00 | 0.00 | 0.00 | 74 | 1021.3 |
| 20260504035043 | 59 | 293 | 1.7 | 3.5 | 0.00 | 0.00 | 0.00 | 74 | 1021.3 |
| 20260504034017 | 59 | 0.0 | 0.0 | 0.00 | 0.00 | 0.00 | 75 | 1021.4 | |
| 20260504033017 | 58 | 0.0 | 0.0 | 0.00 | 0.00 | 0.00 | 74 | 1021.3 | |
| 20260504032017 | 58 | 293 | 1.7 | 3.5 | 0.00 | 0.00 | 0.00 | 71 | 1021.3 |
| 20260504031017 | 57 | 293 | 1.7 | 2.6 | 0.00 | 0.00 | 0.00 | 69 | 1021.3 |
| 20260504030017 | 57 | 315 | 1.7 | 3.5 | 0.00 | 0.00 | 0.00 | 69 | 1021.3 |
| 20260504025017 | 57 | 293 | 1.7 | 4.3 | 0.00 | 0.00 | 0.00 | 69 | 1021.3 |
| 20260504024018 | 57 | 293 | 2.6 | 3.5 | 0.00 | 0.00 | 0.00 | 70 | 1021.4 |
| 20260504023017 | 58 | 293 | 0.9 | 3.5 | 0.00 | 0.00 | 0.00 | 70 | 1021.4 |
| 20260504022017 | 58 | 270 | 0.9 | 2.6 | 0.00 | 0.00 | 0.00 | 69 | 1021.5 |
| 20260504021017 | 57 | 315 | 0.9 | 2.6 | 0.00 | 0.00 | 0.00 | 71 | 1021.6 |
| 20260504020017 | 57 | 0.0 | 2.6 | 0.00 | 0.00 | 0.00 | 71 | 1021.5 | |
| 20260504015017 | 57 | 293 | 0.9 | 1.7 | 0.00 | 0.00 | 0.00 | 71 | 1021.5 |
| 20260504014017 | 58 | 293 | 1.7 | 3.5 | 0.00 | 0.00 | 0.00 | 70 | 1021.5 |
| 20260504013017 | 58 | 293 | 0.9 | 1.7 | 0.00 | 0.00 | 0.00 | 70 | 1021.6 |
| 20260504012037 | 58 | 270 | 1.7 | 2.6 | 0.00 | 0.00 | 0.00 | 70 | 1021.5 |
| 20260504011017 | 58 | 270 | 0.9 | 2.6 | 0.00 | 0.00 | 0.00 | 71 | 1021.4 |
| 20260504010017 | 58 | 293 | 0.9 | 2.6 | 0.00 | 0.00 | 0.00 | 71 | 1021.6 |
| 20260504005016 | 59 | 293 | 0.9 | 2.6 | 0.00 | 0.00 | 0.00 | 71 | 1021.6 |
| 20260504004117 | 59 | 0.0 | 0.0 | 0.00 | 0.00 | 0.00 | 71 | 1021.6 | |
| 20260504003017 | 59 | 0.0 | 0.0 | 0.00 | 0.00 | 0.00 | 73 | 1021.5 | |
| 20260504002017 | 59 | 0.0 | 0.0 | 0.00 | 0.00 | 0.00 | 74 | 1021.6 | |
| 20260504001016 | 59 | 0.0 | 0.0 | 0.00 | 0.00 | 0.00 | 76 | 1021.5 | |
| 20260504000037 | 59 | 315 | 0.9 | 3.5 | 0.00 | 0.00 | 0.00 | 78 | 1021.6 |
| 20260503235017 | 59 | 0.0 | 3.5 | 0.00 | 0.00 | 0.00 | 79 | 1021.7 | |
| 20260503234016 | 59 | 0.0 | 0.0 | 0.00 | 0.00 | 0.00 | 79 | 1021.8 | |
| 20260503233017 | 59 | 0.0 | 0.0 | 0.00 | 0.00 | 0.00 | 79 | 1022.0 | |
| 20260503232017 | 60 | 0.0 | 0.9 | 0.00 | 0.00 | 0.00 | 80 | 1022.0 | |
| 20260503231017 | 59 | 0.0 | 0.0 | 0.00 | 0.00 | 0.00 | 81 | 1022.0 | |
| 20260503230017 | 60 | 0.0 | 1.7 | 0.00 | 0.00 | 0.00 | 81 | 1022.2 | |
| 20260503225017 | 60 | 0.0 | 0.0 | 0.00 | 0.00 | 0.00 | 82 | 1022.3 | |
| 20260503224017 | 60 | 248 | 1.7 | 6.1 | 0.00 | 0.00 | 0.00 | 82 | 1022.3 |
| 20260503223016 | 60 | 293 | 1.7 | 5.2 | 0.00 | 0.00 | 0.00 | 83 | 1022.3 |
| 20260503222057 | 60 | 0.0 | 0.0 | 0.00 | 0.00 | 0.00 | 82 | 1022.3 | |
| 20260503221017 | 60 | 0.0 | 0.0 | 0.00 | 0.00 | 0.00 | 82 | 1022.3 | |
| 20260503220129 | 60 | 293 | 1.7 | 2.6 | 0.00 | 0.00 | 0.00 | 82 | 1022.3 |
| 20260503215016 | 60 | 0.0 | 0.0 | 0.00 | 0.00 | 0.00 | 82 | 1022.4 | |
| 20260503214016 | 61 | 0.0 | 0.9 | 0.00 | 0.00 | 0.00 | 81 | 1022.5 | |
| 20260503213017 | 61 | 270 | 0.9 | 3.5 | 0.00 | 0.00 | 0.00 | 81 | 1022.4 |
| 20260503212016 | 61 | 270 | 2.6 | 5.2 | 0.00 | 0.00 | 0.00 | 81 | 1022.5 |
| 20260503211016 | 61 | 270 | 0.9 | 3.5 | 0.00 | 0.00 | 0.00 | 81 | 1022.6 |
| 20260503210017 | 61 | 270 | 2.6 | 7.0 | 0.00 | 0.00 | 0.00 | 80 | 1022.6 |
| 20260503205016 | 61 | 270 | 2.6 | 6.1 | 0.00 | 0.00 | 0.00 | 81 | 1022.6 |
| 20260503204016 | 61 | 270 | 1.7 | 5.2 | 0.00 | 0.00 | 0.00 | 81 | 1022.5 |
| 20260503203016 | 61 | 293 | 1.7 | 3.5 | 0.00 | 0.00 | 0.00 | 81 | 1022.4 |
| 20260503202016 | 61 | 315 | 1.7 | 3.5 | 0.00 | 0.00 | 0.00 | 80 | 1022.4 |
| 20260503201016 | 61 | 293 | 1.7 | 3.5 | 0.00 | 0.00 | 0.00 | 79 | 1022.5 |
| 20260503200016 | 61 | 270 | 0.9 | 2.6 | 0.00 | 0.00 | 0.00 | 79 | 1022.4 |
| 20260503195016 | 61 | 270 | 2.6 | 5.2 | 0.00 | 0.00 | 0.00 | 79 | 1022.4 |
| 20260503194036 | 61 | 293 | 1.7 | 3.5 | 0.00 | 0.00 | 0.00 | 78 | 1022.5 |
| 20260503193037 | 61 | 270 | 2.6 | 6.1 | 0.00 | 0.00 | 0.00 | 78 | 1022.5 |
| 20260503192016 | 61 | 270 | 3.5 | 7.8 | 0.00 | 0.00 | 0.00 | 77 | 1022.5 |
| 20260503191016 | 61 | 270 | 1.7 | 6.1 | 0.00 | 0.00 | 0.00 | 76 | 1022.3 |
| 20260503190016 | 61 | 270 | 1.7 | 3.5 | 0.00 | 0.00 | 0.00 | 76 | 1022.3 |
| 20260503185016 | 61 | 270 | 2.6 | 5.2 | 0.00 | 0.00 | 0.00 | 76 | 1022.3 |
| 20260503184056 | 62 | 270 | 2.6 | 6.1 | 0.00 | 0.00 | 0.00 | 76 | 1022.1 |
| 20260503183016 | 62 | 270 | 2.6 | 7.0 | 0.00 | 0.00 | 0.00 | 76 | 1021.8 |
| 20260503182016 | 62 | 270 | 2.6 | 5.2 | 0.00 | 0.00 | 0.00 | 74 | 1021.5 |
| 20260503181036 | 62 | 270 | 2.6 | 5.2 | 0.00 | 0.00 | 0.00 | 73 | 1021.5 |
| 20260503180016 | 63 | 293 | 1.7 | 5.2 | 0.00 | 0.00 | 0.00 | 72 | 1021.3 |
| 20260503175016 | 63 | 315 | 2.6 | 7.0 | 0.00 | 0.00 | 0.00 | 72 | 1021.3 |
| 20260503174036 | 63 | 293 | 1.7 | 3.5 | 0.00 | 0.00 | 0.00 | 72 | 1021.2 |
| 20260503173056 | 63 | 270 | 2.6 | 6.1 | 0.00 | 0.00 | 0.00 | 71 | 1021.3 |
| 20260503172016 | 63 | 293 | 4.3 | 8.7 | 0.00 | 0.00 | 0.00 | 70 | 1021.0 |
| 20260503171036 | 63 | 270 | 3.5 | 7.0 | 0.00 | 0.00 | 0.00 | 72 | 1021.0 |
| 20260503131015 | 66 | 270 | 7.0 | 15.6 | 0.00 | 0.00 | 0.00 | 67 | 1021.5 |
| 20260503081017 | 65 | 293 | 7.8 | 13.0 | 0.00 | 0.00 | 0.00 | 63 | 1022.4 |
| 20260503072017 | 64 | 315 | 8.7 | 14.8 | 0.00 | 0.00 | 0.00 | 62 | 1022.3 |
| 20260503071022 | 63 | 315 | 8.7 | 18.2 | 0.00 | 0.00 | 0.00 | 62 | 1022.2 |
| 20260503055017 | 62 | 293 | 7.8 | 13.9 | 0.00 | 0.00 | 0.00 | 64 | 1022.0 |
| 20260503054017 | 62 | 315 | 8.7 | 13.0 | 0.00 | 0.00 | 0.00 | 65 | 1022.0 |
| 20260503053017 | 61 | 315 | 7.0 | 13.9 | 0.00 | 0.00 | 0.00 | 65 | 1022.0 |
| 20260503052017 | 61 | 293 | 4.3 | 10.4 | 0.00 | 0.00 | 0.00 | 66 | 1021.9 |